Weather History for Sand Point, AK

Change the Weather History Date:

Friday, September 20, 2013

  Actual Average Record
Temperature  
Mean Temperature 50 °F -  
Max Temperature 53 °F 49 °F 59 °F (2000)
Min Temperature 48 °F 43 °F 25 °F (1982)
Degree Days  
Heating Degree Days 14    
Moisture  
Dew Point 48 °F    
Average Humidity 90    
Maximum Humidity 100    
Minimum Humidity 82    
Precipitation  
Precipitation 0.00 in - - ()
Sea Level Pressure  
Sea Level Pressure 29.25 in    
Wind  
Wind Speed 10 mph (SW)    
Max Wind Speed 26 mph    
Max Gust Speed 40 mph    
Visibility 7 miles    
Events      
Averages and records for this station are not official NWS values.
T = Trace of Precipitation, MM = Missing Value Source: NWS Daily Summary

Daily Weather History Graph

Daily Weather History Graph

Search for Another Location

Airport:

Trip Planner

Search our weather history database for the weather conditions in past years. The results will help you decide how hot, cold, wet, or windy it might be!

Date:

Astronomy

Sep. 20, 2013 Rise Set
Actual Time 8:24 AM AKDT 8:44 PM AKDT
Civil Twilight 7:48 AM AKDT 9:21 PM AKDT
Nautical Twilight 7:04 AM AKDT 10:04 PM AKDT
Astronomical Twilight 6:17 AM AKDT 10:50 PM AKDT
Moon 8:59 PM AKDT (9/20) 10:14 AM AKDT (9/20)
Length of Visible Light 13h 33m
Length of Day
12h 20m
Full, 98% of the Moon is Illuminated
Sep 20
Full
Sep 26
Last Quarter
Oct 4
New
Oct 11
First Quarter
Oct 18
Full

Hourly Weather History & Observations

Time (AKDT) Temp. Dew Point Humidity Pressure Visibility Wind Dir Wind Speed Gust Speed Precip Events Conditions
12:16 AM 51.8 °F 46.4 °F 82% 29.81 in 10.0 mi WNW 11.5 mph - N/A   Overcast
12:36 AM 51.8 °F 46.4 °F 82% 29.80 in 10.0 mi West 9.2 mph - N/A   Overcast
12:56 AM 51.8 °F 46.4 °F 82% 29.80 in 10.0 mi WNW 8.1 mph - N/A   Overcast
1:16 AM 51.8 °F 46.4 °F 82% 29.79 in 10.0 mi WNW 9.2 mph - N/A   Mostly Cloudy
1:36 AM 51.8 °F 46.4 °F 82% 29.78 in 10.0 mi West 9.2 mph - N/A   Partly Cloudy
1:56 AM 51.8 °F 46.4 °F 82% 29.79 in 10.0 mi WNW 9.2 mph - N/A   Partly Cloudy
2:16 AM 51.8 °F 46.4 °F 82% 29.78 in 10.0 mi WNW 4.6 mph - N/A   Clear
2:36 AM 51.8 °F 46.4 °F 82% 29.78 in 10.0 mi NW 3.5 mph - N/A   Mostly Cloudy
2:56 AM 51.8 °F 46.4 °F 82% 29.76 in 10.0 mi NW 5.8 mph - N/A   Overcast
3:16 AM 51.8 °F 46.4 °F 82% 29.76 in 10.0 mi West 6.9 mph - N/A   Overcast
3:36 AM 51.8 °F 46.4 °F 82% 29.75 in 10.0 mi West 6.9 mph - N/A   Overcast
3:56 AM 50.0 °F 46.4 °F 87% 29.75 in 10.0 mi WSW 4.6 mph - N/A   Overcast
4:16 AM 51.8 °F 46.4 °F 82% 29.75 in 10.0 mi SW 5.8 mph - N/A   Overcast
4:36 AM 51.8 °F 46.4 °F 82% 29.74 in 10.0 mi WSW 4.6 mph - N/A   Overcast
4:56 AM 51.8 °F 46.4 °F 82% 29.73 in 10.0 mi West 3.5 mph - N/A   Overcast
5:16 AM 51.8 °F 46.4 °F 82% 29.72 in 10.0 mi West 3.5 mph - N/A   Overcast
5:36 AM 50.0 °F 46.4 °F 87% 29.71 in 10.0 mi Calm Calm - N/A   Overcast
5:56 AM 50.0 °F 46.4 °F 87% 29.68 in 10.0 mi Calm Calm - N/A   Overcast
6:16 AM 50.0 °F 46.4 °F 87% 29.66 in 10.0 mi SW 6.9 mph - N/A   Overcast
6:36 AM 50.0 °F 46.4 °F 87% 29.65 in 10.0 mi SSW 6.9 mph - N/A   Mostly Cloudy
6:56 AM 50.0 °F 46.4 °F 87% 29.64 in 10.0 mi South 9.2 mph - N/A   Mostly Cloudy
7:16 AM 50.0 °F 46.4 °F 87% 29.63 in 10.0 mi South 8.1 mph - N/A   Mostly Cloudy
7:36 AM 48.2 °F 46.4 °F 93% 29.62 in 10.0 mi South 6.9 mph - N/A   Mostly Cloudy
7:56 AM 50.0 °F 46.4 °F 87% 29.60 in 10.0 mi SSE 8.1 mph - N/A   Overcast
8:16 AM 50.0 °F 46.4 °F 87% 29.58 in 10.0 mi South 9.2 mph - N/A   Overcast
8:36 AM 50.0 °F 46.4 °F 87% 29.56 in 10.0 mi South 10.4 mph - N/A   Overcast
8:56 AM 50.0 °F 46.4 °F 87% 29.54 in 10.0 mi SSE 9.2 mph - N/A   Overcast
9:16 AM 48.2 °F 46.4 °F 93% 29.53 in 10.0 mi South 11.5 mph - N/A   Overcast
9:36 AM 50.0 °F 46.4 °F 87% 29.51 in 10.0 mi South 11.5 mph - N/A   Overcast
9:56 AM 48.2 °F 46.4 °F 93% 29.49 in 8.0 mi South 10.4 mph - N/A   Overcast
10:16 AM 48.2 °F 46.4 °F 93% 29.48 in 6.0 mi SSE 11.5 mph - N/A   Overcast
10:36 AM 48.2 °F 48.2 °F 100% 29.46 in 6.0 mi SE 8.1 mph - N/A   Overcast
10:56 AM 48.2 °F 48.2 °F 100% 29.45 in 4.0 mi SE 10.4 mph 16.1 mph N/A   Overcast
11:16 AM 48.2 °F 48.2 °F 100% 29.41 in 4.0 mi SE 10.4 mph 16.1 mph N/A   Overcast
11:36 AM 48.2 °F 46.4 °F 93% 29.38 in 5.0 mi SE 6.9 mph - N/A   Overcast
11:56 AM 48.2 °F 46.4 °F 93% 29.35 in 6.0 mi SE 8.1 mph - N/A   Overcast
12:16 PM 48.2 °F 46.4 °F 93% 29.31 in 5.0 mi SSE 5.8 mph - N/A   Overcast
12:36 PM 48.2 °F 48.2 °F 100% 29.26 in 5.0 mi SE 8.1 mph - N/A   Overcast
1:16 PM 48.2 °F 48.2 °F 100% 29.21 in 2.5 mi SSE 13.8 mph 25.3 mph N/A   Overcast
1:36 PM 48.2 °F 46.4 °F 93% 29.17 in 1.5 mi SE 15.0 mph 24.2 mph N/A   Overcast
1:56 PM 48.2 °F 48.2 °F 100% 29.12 in 1.5 mi SE 15.0 mph 24.2 mph N/A   Overcast
2:16 PM 50.0 °F 50.0 °F 100% 29.09 in 1.5 mi SSE 13.8 mph 25.3 mph N/A   Overcast
2:36 PM 50.0 °F 50.0 °F 100% 29.05 in 1.5 mi SE 17.3 mph 27.6 mph N/A   Overcast
2:56 PM 51.8 °F 51.8 °F 100% 29.02 in 1.0 mi SE 17.3 mph 24.2 mph N/A   Overcast
3:16 PM 51.8 °F 51.8 °F 100% 28.99 in 1.0 mi SSE 19.6 mph 25.3 mph N/A   Overcast
3:36 PM 51.8 °F 51.8 °F 100% 28.93 in 0.8 mi South 21.9 mph 25.3 mph N/A   Overcast
3:56 PM 53.6 °F 51.8 °F 94% 28.91 in 3.0 mi SSW 20.7 mph 27.6 mph N/A   Mostly Cloudy
4:16 PM 53.6 °F 53.6 °F 100% 28.89 in 3.0 mi SSW 20.7 mph 32.2 mph N/A   Mostly Cloudy
4:36 PM 53.6 °F 53.6 °F 100% 28.86 in 3.0 mi SSW 26.5 mph 34.5 mph N/A   Mostly Cloudy
4:56 PM 53.6 °F 51.8 °F 94% 28.83 in 3.0 mi SSW 24.2 mph 40.3 mph N/A   Overcast
5:16 PM 53.6 °F 51.8 °F 94% 28.81 in 3.0 mi South 25.3 mph 34.5 mph N/A   Overcast
5:36 PM 53.6 °F 51.8 °F 94% 28.79 in 4.0 mi SSW 26.5 mph 31.1 mph N/A   Mostly Cloudy
5:56 PM 53.6 °F 50.0 °F 88% 28.77 in 4.0 mi SSW 23.0 mph 34.5 mph N/A   Mostly Cloudy
6:16 PM 51.8 °F 50.0 °F 94% 28.75 in 4.0 mi SSW 23.0 mph 35.7 mph N/A   Mostly Cloudy
6:36 PM 51.8 °F 50.0 °F 94% 28.73 in 4.0 mi South 15.0 mph 32.2 mph N/A   Mostly Cloudy
6:56 PM 51.8 °F 50.0 °F 94% 28.71 in 4.0 mi WSW 12.7 mph 26.5 mph N/A   Overcast
7:16 PM 51.8 °F 48.2 °F 88% 28.68 in 4.0 mi SW 16.1 mph 28.8 mph N/A   Overcast
7:36 PM 51.8 °F 48.2 °F 88% 28.66 in 4.0 mi South 9.2 mph - N/A   Overcast
7:56 PM 51.8 °F 48.2 °F 88% 28.64 in 4.0 mi SW 16.1 mph 23.0 mph N/A   Overcast
8:16 PM 51.8 °F 48.2 °F 88% 28.63 in 5.0 mi SW 11.5 mph 23.0 mph N/A   Overcast
8:36 PM 51.8 °F 48.2 °F 88% 28.63 in 5.0 mi West 8.1 mph - N/A   Overcast
8:56 PM 51.8 °F 50.0 °F 94% 28.63 in 7.0 mi West 10.4 mph 19.6 mph N/A   Overcast
9:16 PM 51.8 °F 50.0 °F 94% 28.63 in 10.0 mi West 15.0 mph - N/A   Overcast
9:36 PM 51.8 °F 50.0 °F 94% 28.64 in 10.0 mi WNW 11.5 mph - N/A   Overcast
9:56 PM 51.8 °F 50.0 °F 94% 28.65 in 10.0 mi WNW 13.8 mph - N/A   Overcast
10:16 PM 51.8 °F 50.0 °F 94% 28.67 in 10.0 mi NW 11.5 mph - N/A   Mostly Cloudy
10:36 PM 51.8 °F 50.0 °F 94% 28.69 in 10.0 mi West 10.4 mph - N/A   Overcast
10:56 PM 51.8 °F 48.2 °F 88% 28.70 in 10.0 mi WNW 20.7 mph 25.3 mph N/A   Overcast
11:16 PM 51.8 °F 48.2 °F 88% 28.71 in 10.0 mi NW 23.0 mph 31.1 mph N/A   Overcast
11:36 PM 51.8 °F 48.2 °F 88% 28.72 in 10.0 mi WNW 18.4 mph 26.5 mph N/A   Overcast
11:56 PM 51.8 °F 48.2 °F 88% 28.73 in 10.0 mi WNW 12.7 mph 18.4 mph N/A   Overcast